Regional Weather Roundup
Issued by NWS

Home | Current Version | Previous Version | Graphics & Text | Print | Product List | Glossary On
Versions: 1 2 3 4 5 6 7 8 9 10 11 12 13 14 15 16 17 18 19 20 21 22 23 24 25 26 27 28 29 30 31 32 33 34 35 36 37 38 39 40 41 42 43 44 45 46 47 48 49 50
000
ASUS43 KFSD 150910
RWRSD

WEATHER ROUNDUP FOR SOUTH DAKOTA
NATIONAL WEATHER SERVICE SIOUX FALLS SD
400 AM CDT MON SEP 15 2014

NOTE: "FAIR" INDICATES FEW OR NO CLOUDS BELOW 12,000 FEET WITH NO
SIGNIFICANT WEATHER AND/OR OBSTRUCTIONS TO VISIBILITY.


SDZ001>005-009-010-012>017-151000-
NORTHWEST AND NORTH CENTRAL SOUTH DAKOTA

CITY           SKY/WX    TMP DP  RH WIND       PRES   REMARKS
BUFFALO          N/A     43  36  76 SE5       30.19S
FAITH            N/A     46  36  68 MISG      30.24S
MOBRIDGE       CLEAR     40  38  93 N7        30.21R
$$

SDZ012>016-024>037-041>051-057-063-072>074-151000-
SOUTHWEST AND SOUTH CENTRAL SOUTH DAKOTA

CITY           SKY/WX    TMP DP  RH WIND       PRES   REMARKS
RAPID CTY ARPT CLOUDY    38  34  85 CALM      30.26R
PIERRE         MOCLDY    45  40  82 N6        30.22S
CUSTER         CLEAR     38  36  92 NW5       30.26S
PHILIP         CLEAR     41  38  89 W3        30.25R
PINE RIDGE     CLEAR     34  32  92 CALM      30.26R
WINNER         CLOUDY    50  45  83 NW3       30.21S
$$

SDZ004>011-016>023-039-040-151000-
NORTHEAST SOUTH DAKOTA

CITY           SKY/WX    TMP DP  RH WIND       PRES   REMARKS
ABERDEEN       CLOUDY    45  45 100 CALM      30.21R
WATERTOWN      RAIN      47  42  83 NW9       30.20R
SISSETON         N/A     45  43  93 N5        30.18S
$$

SDZ017-020-022-023-036>040-048>070-151000-
SOUTHEAST SOUTH DAKOTA

CITY           SKY/WX    TMP DP  RH WIND       PRES   REMARKS
SIOUX FALLS    LGT RAIN  49  47  93 N6        30.18R
HURON          CLOUDY    49  44  83 N7        30.21R
CHAMBERLAIN    CLOUDY    50  43  75 N6        30.21R
MITCHELL       CLOUDY    49  47  93 CALM      30.20S
YANKTON        CLOUDY    52  45  76 N15       30.16R
$$

ABBREVIATIONS USED IN REMARKS
   TC - TEMPERATURE IN CELSIUS
  WCI - WIND CHILL INDEX
   HX - HEAT INDEX
  VSB - VISIBILITY



USA.gov is the U.S. government's official web portal to all federal, state and local government web resources and services.